When you browse on this site, cookies collect data to enhance your experience and personalize the content and advertising you see.
Visit our Privacy Policy to learn more. By continuing to use the site, you agree to this use of cookies and data.
  • In Netherlands
  • List of Countries
  • For 7 days
  • Water Temperature
  • Weather Map
  • Weather Widgets
  • user-avatar
    Login

    Hourly Weather La Massana

    Today, 29 March, Sunday

    Time Temperature Precipitation Wind Pressure Humidity
    00:00 -3°C° 0 mm 2 mps 607 mmHg 91%
    01:00 -4°C° 0 mm 2 mps 607 mmHg 90%
    02:00 -4°C° 0 mm 2 mps 607 mmHg 89%
    03:00 -4°C° 0 mm 2 mps 606 mmHg 89%
    04:00 -4°C° 0 mm 2 mps 606 mmHg 88%
    05:00 -4°C° 0 mm 2 mps 606 mmHg 88%
    06:00 -4°C° 0 mm 2 mps 606 mmHg 87%
    07:00 -2°C° 0 mm 2 mps 607 mmHg 80%
    08:00 +1°C° 0 mm 2 mps 608 mmHg 73%
    09:00 +3°C° 0 mm 2 mps 609 mmHg 67%
    10:00 +4°C° 0 mm 2 mps 609 mmHg 65%
    11:00 +5°C° 0 mm 2 mps 609 mmHg 64%
    12:00 +6°C° 0 mm 2 mps 609 mmHg 63%
    13:00 +5°C° 0.1 mm 2 mps 608 mmHg 67%
    14:00 +4°C° 0.1 mm 2 mps 608 mmHg 72%
    15:00 +4°C° 0.1 mm 2 mps 607 mmHg 77%
    16:00 +3°C° 0.1 mm 2 mps 607 mmHg 81%
    17:00 +2°C° 0.1 mm 2 mps 606 mmHg 86%
    18:00 +1°C° 0.1 mm 2 mps 606 mmHg 90%
    19:00 -1°C° 0.1 mm 2 mps 606 mmHg 91%
    20:00 0°C° 0.1 mm 1 mps 606 mmHg 92%
    21:00 0°C° 0.1 mm 1 mps 606 mmHg 93%
    22:00 0°C° 0.2 mm 1 mps 606 mmHg 93%
    23:00 -1°C° 0.2 mm 1 mps 605 mmHg 93%

    Tomorrow, 30 March, Monday

    Time Temperature Precipitation Wind Pressure Humidity
    00:00 -1°C° 0.2 mm 1 mps 605 mmHg 93%
    01:00 -1°C° 0.5 mm 1 mps 605 mmHg 94%
    02:00 -4°C° 0.5 mm 2 mps 604 mmHg 95%
    03:00 -4°C° 0.5 mm 2 mps 604 mmHg 96%
    04:00 -5°C° 1.1 mm 2 mps 604 mmHg 96%
    05:00 -5°C° 1.1 mm 2 mps 603 mmHg 95%
    06:00 -6°C° 1.1 mm 2 mps 603 mmHg 95%
    07:00 -6°C° 1.8 mm 2 mps 603 mmHg 94%
    08:00 -6°C° 1.8 mm 2 mps 603 mmHg 93%
    09:00 -7°C° 1.8 mm 2 mps 603 mmHg 92%
    10:00 -6°C° 1.3 mm 2 mps 603 mmHg 92%
    11:00 -5°C° 1.3 mm 2 mps 604 mmHg 91%
    12:00 -3°C° 1.3 mm 1 mps 604 mmHg 90%
    13:00 -4°C° 0.4 mm 2 mps 604 mmHg 91%
    14:00 -4°C° 0.4 mm 2 mps 604 mmHg 92%
    15:00 -3°C° 0.4 mm 2 mps 604 mmHg 93%
    16:00 -4°C° 0.2 mm 2 mps 604 mmHg 94%
    17:00 -5°C° 0.2 mm 2 mps 603 mmHg 95%
    18:00 -4°C° 0.2 mm 1 mps 603 mmHg 96%
    19:00 -6°C° 0.1 mm 1 mps 603 mmHg 95%
    20:00 -7°C° 0.1 mm 1 mps 603 mmHg 95%
    21:00 -8°C° 0.1 mm 1 mps 603 mmHg 95%
    22:00 -8°C° 0 mm 1 mps 603 mmHg 95%
    23:00 -7°C° 0 mm 1 mps 603 mmHg 94%

    Day after tomorrow, 31 March, Tuesday

    Time Temperature Precipitation Wind Pressure Humidity
    00:00 -7°C° 0 mm 1 mps 603 mmHg 94%
    01:00 -7°C° 0.3 mm 1 mps 603 mmHg 94%
    02:00 -6°C° 0.3 mm 1 mps 603 mmHg 95%
    03:00 -6°C° 0.3 mm 1 mps 603 mmHg 95%
    04:00 -6°C° 0.2 mm 1 mps 603 mmHg 95%
    05:00 -6°C° 0.2 mm 1 mps 603 mmHg 95%
    06:00 -4°C° 0.2 mm 1 mps 603 mmHg 95%
    07:00 -3°C° 0.1 mm 1 mps 604 mmHg 94%
    08:00 -1°C° 0.1 mm 1 mps 605 mmHg 94%
    09:00 0°C° 0.1 mm 1 mps 606 mmHg 93%
    10:00 +1°C° 0.2 mm 1 mps 606 mmHg 94%
    11:00 +1°C° 0.2 mm 1 mps 606 mmHg 94%
    12:00 +2°C° 0.2 mm 1 mps 606 mmHg 95%
    13:00 +2°C° 0.2 mm 1 mps 606 mmHg 95%
    14:00 +2°C° 0.2 mm 1 mps 606 mmHg 95%
    15:00 +2°C° 0.2 mm 1 mps 606 mmHg 95%
    16:00 +2°C° 0 mm 1 mps 605 mmHg 96%
    17:00 +1°C° 0 mm 1 mps 605 mmHg 96%
    18:00 +1°C° 0 mm 1 mps 605 mmHg 97%
    19:00 0°C° 0.1 mm 1 mps 605 mmHg 96%
    20:00 0°C° 0.1 mm 1 mps 605 mmHg 95%
    21:00 0°C° 0.1 mm 1 mps 605 mmHg 94%
    22:00 0°C° 0.4 mm 1 mps 605 mmHg 95%
    23:00 0°C° 0.4 mm 1 mps 605 mmHg 96%

    1 April, Wednesday

    Time Temperature Precipitation Wind Pressure Humidity
    00:00 -2°C° 0.4 mm 2 mps 605 mmHg 96%
    01:00 0°C° 0.3 mm 1 mps 605 mmHg 96%
    02:00 0°C° 0.3 mm 1 mps 605 mmHg 96%
    03:00 0°C° 0.3 mm 1 mps 605 mmHg 96%
    04:00 0°C° 0.2 mm 1 mps 605 mmHg 96%
    05:00 0°C° 0.2 mm 1 mps 605 mmHg 96%
    06:00 -2°C° 0.2 mm 2 mps 605 mmHg 96%
    07:00 -1°C° 0 mm 2 mps 605 mmHg 95%
    08:00 +2°C° 0 mm 1 mps 606 mmHg 94%
    09:00 +3°C° 0 mm 1 mps 606 mmHg 93%
    10:00 +3°C° 0.2 mm 2 mps 606 mmHg 92%
    11:00 +3°C° 0.2 mm 2 mps 607 mmHg 92%
    12:00 +3°C° 0.2 mm 2 mps 607 mmHg 91%
    13:00 +4°C° 0.2 mm 1 mps 607 mmHg 91%
    14:00 +5°C° 0.2 mm 1 mps 606 mmHg 91%
    15:00 +5°C° 0.2 mm 1 mps 606 mmHg 91%
    16:00 +4°C° 0.8 mm 1 mps 606 mmHg 93%
    17:00 +3°C° 0.8 mm 1 mps 605 mmHg 96%
    18:00 +2°C° 0.8 mm 1 mps 605 mmHg 98%
    19:00 +2°C° 1 mm 1 mps 605 mmHg 98%
    20:00 +1°C° 1 mm 1 mps 605 mmHg 98%
    21:00 +1°C° 1 mm 1 mps 605 mmHg 97%
    22:00 +1°C° 0 mm 1 mps 605 mmHg 97%
    23:00 +1°C° 0 mm 1 mps 604 mmHg 96%

    2 April, Thursday

    Time Temperature Precipitation Wind Pressure Humidity
    00:00 +1°C° 0 mm 1 mps 604 mmHg 96%
    01:00 +1°C° 0.1 mm 1 mps 604 mmHg 95%
    02:00 0°C° 0.1 mm 1 mps 603 mmHg 95%
    03:00 0°C° 0.1 mm 1 mps 603 mmHg 94%
    04:00 0°C° 0.1 mm 1 mps 603 mmHg 95%
    05:00 0°C° 0.1 mm 1 mps 603 mmHg 95%
    06:00 +1°C° 0.1 mm 1 mps 603 mmHg 96%
    07:00 +1°C° 0.2 mm 1 mps 603 mmHg 96%
    08:00 +2°C° 0.2 mm 1 mps 603 mmHg 95%
    09:00 +3°C° 0.2 mm 1 mps 604 mmHg 95%
    10:00 +3°C° 0.3 mm 1 mps 604 mmHg 94%
    11:00 +3°C° 0.3 mm 1 mps 604 mmHg 94%
    12:00 +3°C° 0.3 mm 2 mps 604 mmHg 94%
    13:00 +2°C° 0.5 mm 2 mps 604 mmHg 94%
    14:00 +2°C° 0.5 mm 2 mps 604 mmHg 95%
    15:00 +2°C° 0.5 mm 2 mps 604 mmHg 95%
    16:00 +1°C° 0.4 mm 2 mps 604 mmHg 96%
    17:00 +1°C° 0.4 mm 2 mps 604 mmHg 97%
    18:00 -1°C° 0.4 mm 2 mps 604 mmHg 98%
    19:00 -1°C° 0.5 mm 2 mps 604 mmHg 97%
    20:00 -2°C° 0.5 mm 2 mps 604 mmHg 97%
    21:00 -2°C° 0.5 mm 2 mps 604 mmHg 97%
    22:00 -2°C° 0.4 mm 2 mps 604 mmHg 96%
    23:00 -3°C° 0.4 mm 2 mps 604 mmHg 96%

    3 April, Friday

    Time Temperature Precipitation Wind Pressure Humidity
    00:00 -3°C° 0.4 mm 2 mps 604 mmHg 95%
    01:00 -3°C° 0.3 mm 2 mps 604 mmHg 95%
    02:00 -3°C° 0.3 mm 2 mps 604 mmHg 95%
    03:00 -3°C° 0.3 mm 2 mps 604 mmHg 95%
    04:00 -3°C° 0.1 mm 2 mps 604 mmHg 95%
    05:00 -4°C° 0.1 mm 2 mps 604 mmHg 95%
    06:00 -4°C° 0.1 mm 2 mps 604 mmHg 95%
    07:00 -3°C° 0 mm 2 mps 605 mmHg 91%
    08:00 -2°C° 0 mm 2 mps 605 mmHg 88%
    09:00 -1°C° 0 mm 2 mps 606 mmHg 84%
    10:00 +1°C° 0 mm 2 mps 606 mmHg 81%
    11:00 +1°C° 0 mm 2 mps 606 mmHg 79%
    12:00 +2°C° 0 mm 2 mps 607 mmHg 76%
    13:00 +2°C° 0 mm 2 mps 607 mmHg 75%
    14:00 +3°C° 0 mm 2 mps 606 mmHg 75%
    15:00 +3°C° 0 mm 2 mps 606 mmHg 75%
    16:00 +1°C° 0 mm 2 mps 606 mmHg 80%
    17:00 -1°C° 0 mm 2 mps 605 mmHg 85%
    18:00 -2°C° 0 mm 2 mps 605 mmHg 90%
    19:00 -3°C° 0 mm 2 mps 605 mmHg 88%
    20:00 -4°C° 0 mm 2 mps 605 mmHg 87%
    21:00 -5°C° 0 mm 2 mps 605 mmHg 85%
    22:00 -4°C° 0 mm 1 mps 605 mmHg 79%
    23:00 -4°C° 0 mm 1 mps 605 mmHg 74%
    Show more